Cody, WY

6:58 PM MDT on April 28, 2017 (GMT -0600)
Yellowstone Regional

Weather History for KCOD - February, 2014

Change the Weather History Date:

Sunday, February 16, 2014

  Actual Average Record
Temperature  
Mean Temperature 40 °F -  
Max Temperature 48 °F 37 °F 61 °F (1934)
Min Temperature 33 °F 17 °F -21 °F (1956)
Degree Days  
Heating Degree Days 24    
Moisture  
Dew Point 25 °F    
Average Humidity 56    
Maximum Humidity 87    
Minimum Humidity 30    
Precipitation  
Precipitation 0.01 in - - ()
Sea Level Pressure  
Sea Level Pressure 29.67 in    
Wind  
Wind Speed 11 mph (WSW)    
Max Wind Speed 25 mph    
Max Gust Speed 46 mph    
Visibility 10 miles    
Events      
Averages and records for this station are not official NWS values.
T = Trace of Precipitation, MM = Missing Value Source: NWS Daily Summary

Daily Weather History Graph

Daily Weather History Graph

Search for Another Location

Airport or City:

Trip Planner

Search our weather history database for the weather conditions in past years. The results will help you decide how hot, cold, wet, or windy it might be!

Date:

Astronomy

Feb. 16, 2014 Rise Set
Actual Time 7:14 AM MST 5:46 PM MST
Civil Twilight 6:44 AM MST 6:16 PM MST
Nautical Twilight 6:10 AM MST 6:50 PM MST
Astronomical Twilight 5:36 AM MST 7:24 PM MST
Moon 7:53 PM MST (2/16) 7:40 AM MST (2/16)
Length of Visible Light 11h 31m
Length of Day
10h 31m
Full, 97% of the Moon is Illuminated
Feb 16
Full
Feb 22
Last Quarter
Mar 1
New
Mar 8
First Quarter
Mar 16
Full

Hourly Weather History & Observations

Time (MST) Temp. Windchill Dew Point Humidity Pressure Visibility Wind Dir Wind Speed Gust Speed Precip Events Conditions
12:15 AM 44.6 °F 42.2 °F 30.2 °F 57% 29.68 in 10.0 mi South 4.6 mph 26.5 mph N/A   Clear
12:35 AM 42.8 °F 41.1 °F 30.2 °F 61% 29.67 in 10.0 mi NW 3.5 mph - N/A   Clear
12:55 AM 42.8 °F 39.3 °F 28.4 °F 57% 29.68 in 10.0 mi SSE 5.8 mph - N/A   Clear
1:15 AM 44.6 °F 39.7 °F 30.2 °F 57% 29.66 in 10.0 mi East 9.2 mph - N/A   Clear
1:35 AM 44.6 °F 39.2 °F 30.2 °F 57% 29.64 in 10.0 mi South 10.4 mph 18.4 mph N/A   Clear
1:55 AM 46.4 °F 44.3 °F 30.2 °F 53% 29.63 in 10.0 mi ESE 4.6 mph - N/A   Clear
2:15 AM 42.8 °F 41.1 °F 28.4 °F 57% 29.63 in 10.0 mi West 3.5 mph - N/A   Clear
2:35 AM 41.0 °F 35.8 °F 28.4 °F 61% 29.62 in 10.0 mi SSE 8.1 mph - N/A   Clear
3:35 AM 44.6 °F 38.8 °F 30.2 °F 57% 29.60 in 10.0 mi ESE 11.5 mph 18.4 mph N/A   Clear
3:55 AM 44.6 °F 40.2 °F 32.0 °F 61% 29.60 in 10.0 mi SE 8.1 mph - N/A   Clear
4:15 AM 46.4 °F 45.2 °F 33.8 °F 62% 29.59 in 10.0 mi WNW 3.5 mph - N/A   Clear
5:55 AM 46.4 °F 40.1 °F 33.8 °F 62% 29.56 in 10.0 mi West 15.0 mph 24.2 mph N/A   Clear
7:15 AM 41.0 °F 39.0 °F 30.2 °F 65% 29.55 in 10.0 mi NNW 3.5 mph - N/A   Clear
7:35 AM 44.6 °F 38.8 °F 33.8 °F 66% 29.54 in 10.0 mi West 11.5 mph 19.6 mph N/A   Clear
7:55 AM 44.6 °F 37.4 °F 33.8 °F 66% 29.54 in 10.0 mi West 16.1 mph 21.9 mph N/A   Clear
8:15 AM 44.6 °F 37.8 °F 32.0 °F 61% 29.54 in 10.0 mi WSW 15.0 mph 25.3 mph N/A   Clear
8:35 AM 46.4 °F 39.5 °F 32.0 °F 57% 29.54 in 10.0 mi WSW 17.3 mph 27.6 mph N/A   Clear
9:15 AM 46.4 °F 39.2 °F 33.8 °F 62% 29.53 in 10.0 mi WSW 18.4 mph 26.5 mph N/A   Clear
9:35 AM 46.4 °F 39.5 °F 33.8 °F 62% 29.53 in 10.0 mi WSW 17.3 mph 26.5 mph N/A   Clear
9:55 AM 46.4 °F 38.3 °F 33.8 °F 62% 29.52 in 10.0 mi WSW 23.0 mph 35.7 mph N/A   Clear
10:15 AM 46.4 °F 38.5 °F 33.8 °F 62% 29.54 in 10.0 mi SW 21.9 mph 31.1 mph N/A   Clear
10:35 AM 44.6 °F 36.1 °F 35.6 °F 71% 29.53 in 10.0 mi SW 21.9 mph 34.5 mph N/A   Partly Cloudy
10:55 AM 44.6 °F 37.2 °F 35.6 °F 71% 29.53 in 10.0 mi WSW 17.3 mph 26.5 mph N/A   Partly Cloudy
11:15 AM 46.4 °F 39.2 °F 33.8 °F 62% 29.53 in 10.0 mi WSW 18.4 mph 25.3 mph N/A   Clear
11:35 AM 48.2 °F - 30.2 °F 50% 29.52 in 10.0 mi West 13.8 mph 32.2 mph N/A   Clear
11:55 AM 48.2 °F - 28.4 °F 46% 29.52 in 10.0 mi WSW 17.3 mph 25.3 mph N/A   Clear
12:15 PM 48.2 °F - 30.2 °F 50% 29.52 in 10.0 mi WSW 16.1 mph 28.8 mph N/A   Clear
12:35 PM 48.2 °F - 30.2 °F 50% 29.51 in 10.0 mi WSW 19.6 mph 29.9 mph N/A   Clear
12:55 PM 46.4 °F 39.5 °F 30.2 °F 53% 29.50 in 10.0 mi WSW 17.3 mph 27.6 mph N/A   Clear
1:15 PM 46.4 °F 40.1 °F 30.2 °F 53% 29.51 in 10.0 mi WSW 15.0 mph 26.5 mph N/A   Clear
1:35 PM 46.4 °F 39.8 °F 28.4 °F 50% 29.50 in 10.0 mi WSW 16.1 mph 25.3 mph N/A   Partly Cloudy
1:55 PM 44.6 °F 37.2 °F 30.2 °F 57% 29.57 in 10.0 mi WSW 17.3 mph 32.2 mph N/A   Mostly Cloudy
2:15 PM 39.2 °F 29.8 °F 30.2 °F 70% 29.59 in 9.0 mi WSW 18.4 mph 36.8 mph N/A   Mostly Cloudy
2:35 PM 41.0 °F 34.3 °F 30.2 °F 65% 29.58 in 10.0 mi NNE 11.5 mph 24.2 mph N/A   Scattered Clouds
2:55 PM 35.6 °F 32.8 °F 32.0 °F 87% 29.56 in 10.0 mi East 3.5 mph - N/A   Clear
3:15 PM 39.2 °F 33.0 °F 33.8 °F 81% 29.61 in 10.0 mi North 9.2 mph - N/A   Clear
3:35 PM 39.2 °F 30.5 °F 28.4 °F 65% 29.66 in 10.0 mi WNW 16.1 mph 29.9 mph N/A   Mostly Cloudy
3:55 PM 35.6 °F 30.7 °F 30.2 °F 81% 29.65 in 10.0 mi WSW 5.8 mph - N/A   Mostly Cloudy
4:15 PM 37.4 °F 28.2 °F 30.2 °F 75% 29.67 in 10.0 mi NNE 16.1 mph - N/A   Partly Cloudy
4:35 PM 33.8 °F 26.4 °F 28.4 °F 81% 29.69 in 10.0 mi ENE 9.2 mph - N/A   Partly Cloudy
4:55 PM 33.8 °F 27.7 °F 28.4 °F 81% 29.70 in 10.0 mi NE 6.9 mph - N/A   Partly Cloudy
5:15 PM 33.8 °F 27.7 °F 28.4 °F 81% 29.73 in 10.0 mi ESE 6.9 mph - N/A   Partly Cloudy
5:35 PM 35.6 °F 29.9 °F 28.4 °F 75% 29.74 in 10.0 mi West 6.9 mph - N/A   Clear
5:55 PM 35.6 °F 26.6 °F 23.0 °F 60% 29.76 in 10.0 mi West 13.8 mph 23.0 mph N/A   Clear
6:15 PM 35.6 °F 26.6 °F 21.2 °F 56% 29.79 in 10.0 mi WSW 13.8 mph 20.7 mph N/A   Clear
6:35 PM 35.6 °F 28.6 °F 17.6 °F 48% 29.80 in 10.0 mi SW 9.2 mph - N/A   Clear
6:55 PM 35.6 °F - 15.8 °F 44% 29.81 in 10.0 mi Calm Calm - N/A   Scattered Clouds
7:15 PM 35.6 °F 27.1 °F 14.0 °F 41% 29.80 in 10.0 mi WSW 12.7 mph 20.7 mph N/A   Partly Cloudy
7:35 PM 35.6 °F 28.0 °F 12.2 °F 38% 29.83 in 10.0 mi WNW 10.4 mph - N/A   Clear
7:55 PM 35.6 °F 27.1 °F 10.4 °F 35% 29.84 in 10.0 mi WSW 12.7 mph 23.0 mph N/A   Clear
8:15 PM 35.6 °F 29.2 °F 10.4 °F 35% 29.85 in 10.0 mi WSW 8.1 mph 23.0 mph N/A   Clear
8:35 PM 35.6 °F 26.6 °F 12.2 °F 38% 29.88 in 10.0 mi West 13.8 mph 19.6 mph N/A   Clear
8:55 PM 35.6 °F 27.5 °F 8.6 °F 33% 29.88 in 10.0 mi South 11.5 mph 23.0 mph N/A   Clear
9:15 PM 35.6 °F 31.7 °F 6.8 °F 30% 29.89 in 10.0 mi South 4.6 mph 18.4 mph N/A   Partly Cloudy
9:35 PM 33.8 °F - 8.6 °F 35% 29.91 in 10.0 mi Calm Calm - N/A   Clear
9:55 PM 35.6 °F 28.6 °F 8.6 °F 33% 29.91 in 10.0 mi NW 9.2 mph - N/A   Clear
10:15 PM 33.8 °F 23.5 °F 6.8 °F 32% 29.93 in 10.0 mi NNW 16.1 mph 20.7 mph N/A   Clear
10:35 PM 33.8 °F 23.9 °F 6.8 °F 32% 29.94 in 10.0 mi SW 15.0 mph 23.0 mph N/A   Clear
10:55 PM 33.8 °F 24.3 °F 8.6 °F 35% 29.94 in 10.0 mi West 13.8 mph 24.2 mph N/A   Clear
11:15 PM 33.8 °F 22.2 °F 6.8 °F 32% 29.91 in 10.0 mi WSW 20.7 mph 38.0 mph 0.01 in   Clear
11:35 PM 33.8 °F 21.0 °F 8.6 °F 35% 29.91 in 10.0 mi WSW 25.3 mph 41.4 mph 0.01 in   Clear
11:55 PM 33.8 °F 21.0 °F 8.6 °F 35% 29.91 in 10.0 mi WSW 25.3 mph 46.0 mph 0.01 in   Clear